[[{"header":{"parameterUnit":"m.s-1","parameterCategory":1,"la1":30.2991,"la2":30.254,"lo1":-89.0895,"lo2":-89.0444,"dy":0.0017,"dx":0.0017,"nx":28,"ny":28,"refTime":"2024-08-01T21:00:00:Z","depth":0,"parameterNumber":2,"parameterNumberName":"U-component_of_WINDS"},"data":[0,0,0,0,0,0,0,0,0,0,0,0,0,0,0,0,0,0,0,0,0,0,0,0,0,0,0,0,0,0,0,0,0,0,0,0,0,0,0,0,0,0,0,0,0,0,0,0,0,0,0,0,0,0,0,0,0,0,3.0266,3.0268,0,3.0454,3.0456,3.0458,3.0481,3.0479,3.0477,3.0476,3.0671,3.0678,3.0685,0,0,0,0,0,0,0,0,0,0,0,0,0,2.9929,2.9935,3.0266,3.0268,3.027,3.0454,3.0456,3.0459,3.0481,3.0479,3.0477,3.0475,3.0669,3.0677,3.0685,0,0,0,0,0,0,0,0,0,0,0,0,0,3.0092,2.9937,3.0265,3.0304,3.0309,3.0453,3.0457,3.046,3.0482,3.0479,3.0476,3.0474,3.0666,3.0676,3.0686,3.0806,0,0,3.0718,3.0723,0,0,0,0,0,0,0,0,3.0083,3.0105,3.0296,3.0301,3.0307,3.0441,3.0409,3.0576,3.0483,3.0416,3.0476,3.0472,3.0597,3.0613,3.0654,3.0815,3.0824,3.0719,3.0725,3.073,3.0733,0,0,0,0,0,0,0,3.0072,3.0097,3.034,3.0298,3.0306,3.0313,3.0333,3.0441,3.052,3.0422,3.0424,3.0446,3.06,3.0644,3.0659,3.0827,3.0719,3.0728,3.0734,3.0739,3.1098,3.1101,0,0,0,0,0,0,3.0053,3.0087,3.0334,3.0346,3.0186,3.0321,3.0343,3.0401,3.0519,3.0534,3.0448,3.0446,3.0628,3.0647,3.0666,3.0815,3.073,3.074,3.0746,3.1094,3.1098,3.1102,0,0,0,0,0,0,3.0046,3.0075,3.0327,3.0217,3.025,3.033,3.0394,3.0406,3.0451,3.0539,3.0553,3.0479,3.0626,3.0651,3.0772,3.0822,3.0744,3.0754,3.1091,3.1096,3.11,3.1113,0,0,0,0,0,0,3.0036,3.0072,3.0117,3.0218,3.0256,3.0428,3.0397,3.0412,3.0468,3.0468,3.0571,3.0586,3.0626,3.0756,3.0782,3.0835,3.0762,3.1086,3.1093,3.1099,3.1109,3.1118,3.1126,0,0,0,0,0,3.0024,3.0114,3.0119,3.0149,3.0314,3.0431,3.0452,3.0496,3.0472,3.0519,3.0576,3.0583,3.0813,3.0768,3.0797,3.0854,3.1083,3.1091,3.1098,3.1105,3.1116,3.1126,0,0,0,0,0,0,3.0017,3.0127,3.0135,3.026,3.0336,3.0434,3.0494,3.0507,3.0591,3.0587,3.0639,3.0662,3.078,3.083,3.0778,3.0978,3.0946,3.096,3.0941,3.0952,3.0961,3.0946,3.077,0,0,0,0,0,3.003,3.0114,3.0207,3.0308,3.0346,3.0414,3.0466,3.0494,3.0575,3.0607,3.0672,3.0751,3.0842,3.09,3.0988,3.1116,3.114,3.1171,3.1179,3.1186,3.1197,3.127,3.1285,3.1126,3.1126,3.1126,0,0,3.0057,3.0128,3.0179,3.0309,3.0371,3.0459,3.0441,3.0534,3.06,3.0621,3.0738,3.079,3.0882,3.1006,3.1065,3.1051,3.1246,3.1195,3.12,3.1208,3.1279,3.1294,3.1307,3.1132,3.1131,3.113,0,0,3.0153,3.0215,3.0306,3.0369,3.0463,3.0508,3.053,3.0627,3.0662,3.078,3.0799,3.0879,3.1033,3.1098,3.1151,3.1273,3.1283,3.1301,3.1346,3.1417,3.1429,3.144,3.1485,3.15,3.1312,3.1312,3.1312,0,3.0175,3.0307,3.0352,3.0445,3.0503,3.0526,3.062,3.0679,3.0797,3.0837,3.082,3.1015,3.1079,3.122,3.125,3.1292,3.132,3.1289,3.1423,3.1435,3.1447,3.1489,3.1506,3.1313,3.1313,3.1313,3.1313,0,3.0331,3.0422,3.0485,3.0598,3.0663,3.0756,3.0817,3.0877,3.09,3.0947,3.1068,3.1145,3.125,3.1286,3.1308,3.1431,3.142,3.1413,3.1382,3.1462,3.1503,3.152,3.1315,3.1315,3.1314,3.1314,0,0,3.0425,3.0563,3.0585,3.0638,3.0744,3.0816,3.0912,3.1013,3.1064,3.1146,3.1228,3.1359,3.1353,3.1414,3.1445,3.1507,3.16,3.1493,3.1496,3.151,3.174,3.1745,3.1763,3.1607,3.161,3.1613,3.1733,0,3.0532,3.0701,3.0745,3.089,3.0975,3.1,3.1084,3.1159,3.1206,3.1287,3.134,3.1431,3.1417,3.1454,3.1517,3.1575,3.1647,3.1567,3.1685,3.1688,3.166,3.1784,3.1789,3.1898,3.1749,3.1752,3.1754,0,3.0679,3.0763,3.0916,3.1013,3.1051,3.1124,3.1222,3.1299,3.1385,3.1416,3.1484,3.1509,3.1611,3.1576,3.1717,3.1662,3.1713,3.175,3.1755,3.1767,3.1725,3.18,3.1933,3.195,3.1779,3.1777,3.1776,0,3.0733,3.0885,3.0996,3.104,3.1155,3.1207,3.1258,3.1342,3.1401,3.1487,3.1526,3.1623,3.1676,3.1751,3.1803,3.1772,3.1941,3.1909,3.1969,3.1968,3.2003,3.2,3.2147,3.2037,3.2036,3.2036,3.2036,0,3.0847,3.094,3.1021,3.109,3.1195,3.1246,3.1349,3.1401,3.1476,3.1556,3.1584,3.1659,3.1722,3.1806,3.1848,3.1959,3.1983,3.2011,3.2021,3.2009,3.2005,3.2042,3.2036,3.204,3.2039,3.2039,3.2038,0,3.0924,3.0982,3.1105,3.1205,3.1233,3.1306,3.1392,3.146,3.1509,3.161,3.1637,3.1714,3.1814,3.1874,3.2001,3.2029,3.2152,3.2159,3.2123,3.2127,3.2184,3.2178,3.236,3.2386,3.2258,3.2259,3.226,0,3.0993,3.1064,3.1173,3.1228,3.1279,3.1368,3.1429,3.1483,3.1545,3.165,3.1706,3.1808,3.1893,3.2052,3.212,3.2218,3.2227,3.2284,3.2242,3.2228,3.2228,3.2223,3.2231,3.2291,3.2292,3.2293,3.2294,0,3.1109,3.1135,3.122,3.1317,3.1388,3.1467,3.1545,3.1589,3.1657,3.1726,3.1829,3.1894,3.2024,3.2126,3.223,3.2284,3.2301,3.2307,3.2326,3.2314,3.229,3.2304,3.2142,3.2302,3.2301,3.2301,3.23,3.23,3.1184,3.1249,3.1336,3.1431,3.1496,3.1569,3.1638,3.1696,3.1783,3.1892,3.192,3.2028,3.2115,3.2256,3.2313,3.24,3.239,3.2418,3.2425,3.2431,3.2432,3.2276,3.2419,3.2419,3.2418,3.2418,3.2418,0,3.1302,3.1359,3.1446,3.1555,3.163,3.164,3.1728,3.179,3.1885,3.1965,3.2047,3.2167,3.2266,3.2342,3.2444,3.2499,3.251,3.2524,3.252,3.2533,3.2435,3.2408,3.2514,3.2514,3.2514,3.2514,3.2514,3.2514,3.1372,3.1483,3.152,3.1664,3.1722,3.1827,3.1877,3.1945,3.2009,3.2141,3.2223,3.2272,3.2352,3.246,3.2552,3.2572,3.2608,3.2622,3.2643,3.255,3.2539,3.2529,3.2505,3.2629,3.2629,3.2734,3.2735,3.2736]},{"header":{"parameterUnit":"m.s-1","parameterCategory":1,"la1":30.2991,"la2":30.254,"lo1":-89.0895,"lo2":-89.0444,"dy":0.0017,"dx":0.0017,"nx":28,"ny":28,"refTime":"2024-08-01T21:00:00:Z","depth":0,"parameterNumber":3,"parameterNumberName":"V-component_of_WINDS"},"data":[0,0,0,0,0,0,0,0,0,0,0,0,0,0,0,0,0,0,0,0,0,0,0,0,0,0,0,0,0,0,0,0,0,0,0,0,0,0,0,0,0,0,0,0,0,0,0,0,0,0,0,0,0,0,0,0,0,0,3.5684,3.5687,0,3.5956,3.5959,3.5962,3.5999,3.5997,3.5994,3.5992,3.6272,3.6282,3.6291,0,0,0,0,0,0,0,0,0,0,0,0,0,3.5197,3.5206,3.5683,3.5687,3.569,3.5956,3.5959,3.5963,3.6,3.5997,3.5994,3.5991,3.6269,3.628,3.6292,0,0,0,0,0,0,0,0,0,0,0,0,0,3.5433,3.5208,3.5683,3.5741,3.5748,3.5955,3.596,3.5964,3.6001,3.5997,3.5993,3.5989,3.6265,3.6279,3.6294,3.6462,0,0,3.6339,3.6345,0,0,0,0,0,0,0,0,3.5419,3.545,3.5729,3.5737,3.5746,3.594,3.5891,3.6131,3.6001,3.5905,3.5992,3.5987,3.6165,3.6187,3.6247,3.6475,3.6487,3.634,3.6349,3.6356,3.636,0,0,0,0,0,0,0,3.5403,3.5439,3.5791,3.5733,3.5743,3.5754,3.5783,3.5936,3.6053,3.5913,3.5916,3.5948,3.6169,3.6233,3.6254,3.6491,3.634,3.6353,3.6362,3.6368,3.6874,3.6878,0,0,0,0,0,0,3.5376,3.5425,3.5783,3.5799,3.557,3.5765,3.5798,3.5882,3.6051,3.6074,3.5951,3.5949,3.6209,3.6237,3.6264,3.6474,3.6356,3.6369,3.6378,3.6869,3.6875,3.688,0,0,0,0,0,0,3.5365,3.5407,3.5772,3.5613,3.5661,3.5778,3.5871,3.5889,3.5953,3.608,3.6101,3.5995,3.6207,3.6243,3.6413,3.6484,3.6376,3.6389,3.6864,3.6871,3.6877,3.6894,0,0,0,0,0,0,3.5351,3.5403,3.5468,3.5615,3.5669,3.5916,3.5876,3.5897,3.5978,3.5978,3.6127,3.6148,3.6207,3.6391,3.6428,3.6503,3.6401,3.6858,3.6867,3.6875,3.6888,3.6901,3.6912,0,0,0,0,0,3.5333,3.5461,3.5471,3.5514,3.5752,3.592,3.5951,3.6016,3.5984,3.605,3.6132,3.6143,3.647,3.6408,3.645,3.653,3.6854,3.6864,3.6874,3.6883,3.6898,3.6912,0,0,0,0,0,0,3.532,3.5482,3.5494,3.5673,3.5782,3.5926,3.6011,3.603,3.6151,3.6146,3.6222,3.6255,3.6422,3.6493,3.6421,3.6703,3.6659,3.6678,3.6651,3.6667,3.6679,3.6659,3.6413,0,0,0,0,0,3.5338,3.546,3.5595,3.574,3.5794,3.5893,3.5969,3.601,3.6126,3.6173,3.6267,3.638,3.6508,3.6591,3.6716,3.6898,3.6932,3.6974,3.6986,3.6995,3.7011,3.7115,3.7136,3.6913,3.6913,3.6913,0,0,3.5376,3.548,3.5552,3.574,3.5829,3.5956,3.5932,3.6066,3.616,3.6193,3.636,3.6433,3.6564,3.6741,3.6824,3.6805,3.708,3.7008,3.7014,3.7026,3.7128,3.7149,3.7167,3.692,3.6919,3.6918,0,0,3.5511,3.56,3.5732,3.5823,3.5959,3.6024,3.6055,3.6196,3.6246,3.6415,3.6443,3.6556,3.6775,3.6868,3.6944,3.7115,3.7131,3.7153,3.7217,3.7317,3.7335,3.7351,3.7414,3.7435,3.7169,3.7169,3.7169,0,3.5542,3.5732,3.5798,3.5932,3.6014,3.6049,3.6184,3.6269,3.6438,3.6495,3.6472,3.6749,3.6839,3.7039,3.7081,3.7141,3.7181,3.7138,3.7326,3.7343,3.7359,3.742,3.7444,3.7171,3.7171,3.717,3.717,0,3.5764,3.5896,3.5986,3.615,3.6242,3.6376,3.6463,3.6549,3.6581,3.6649,3.6821,3.6931,3.708,3.713,3.7163,3.7336,3.7321,3.7311,3.7269,3.7381,3.744,3.7464,3.7174,3.7173,3.7172,3.7172,0,0,3.5899,3.6097,3.613,3.6205,3.6358,3.6462,3.6597,3.6743,3.6816,3.6932,3.7049,3.7234,3.7226,3.7312,3.7356,3.7443,3.7575,3.7424,3.7428,3.745,3.7775,3.7783,3.7809,3.7585,3.759,3.7593,3.7765,0,3.6053,3.6296,3.6359,3.6566,3.669,3.6725,3.6844,3.6951,3.7018,3.7133,3.7207,3.7338,3.7317,3.737,3.7457,3.754,3.7641,3.7528,3.7696,3.7701,3.7665,3.7839,3.7848,3.8005,3.7788,3.7792,3.7795,0,3.6265,3.6386,3.6605,3.6744,3.6798,3.6904,3.7043,3.7152,3.7275,3.7318,3.7414,3.745,3.7594,3.7543,3.7743,3.7665,3.7737,3.7788,3.7796,3.7816,3.7756,3.7866,3.8056,3.808,3.7831,3.7828,3.7825,0,3.6345,3.6562,3.6722,3.6785,3.695,3.7024,3.7096,3.7215,3.7299,3.7421,3.7476,3.7613,3.7688,3.7794,3.7866,3.7821,3.8061,3.8015,3.8102,3.8101,3.8153,3.8149,3.8359,3.8195,3.8195,3.8195,3.8194,0,3.6511,3.6645,3.676,3.6859,3.701,3.7082,3.7229,3.7302,3.7408,3.7522,3.756,3.7667,3.7755,3.7874,3.7931,3.8089,3.8122,3.8162,3.8176,3.8161,3.8156,3.8211,3.8203,3.8201,3.82,3.8198,3.8197,0,3.6626,3.6708,3.6886,3.7027,3.7066,3.7171,3.7293,3.7391,3.7459,3.7604,3.7641,3.7749,3.7891,3.7973,3.8151,3.819,3.8367,3.8375,3.8326,3.8333,3.8416,3.8408,3.8671,3.871,3.8517,3.8519,3.852,0,3.6728,3.6832,3.6985,3.7065,3.7138,3.7265,3.7351,3.7426,3.7515,3.7663,3.7743,3.7887,3.8007,3.8232,3.8327,3.8464,3.8477,3.8559,3.8498,3.8479,3.8481,3.8475,3.8487,3.857,3.8572,3.8574,3.8575,0,3.6902,3.6938,3.706,3.7198,3.73,3.7412,3.7523,3.7586,3.768,3.7778,3.7923,3.8016,3.8199,3.8343,3.8488,3.8563,3.8586,3.8593,3.8621,3.8607,3.8576,3.8597,3.8357,3.8587,3.8586,3.8585,3.8584,3.8584,3.7016,3.711,3.7233,3.7369,3.7461,3.7565,3.7664,3.7745,3.7868,3.8023,3.8059,3.8213,3.8335,3.8532,3.8611,3.8733,3.8719,3.8759,3.8769,3.8779,3.8783,3.8554,3.8759,3.8759,3.8759,3.8759,3.8759,0,3.7193,3.7274,3.7399,3.7554,3.7661,3.7672,3.7796,3.7886,3.8021,3.8132,3.8249,3.8417,3.8557,3.8662,3.8806,3.8883,3.8897,3.8918,3.8915,3.8932,3.8786,3.8749,3.8905,3.8905,3.8905,3.8905,3.8905,3.8905,3.7299,3.746,3.7511,3.7719,3.7799,3.795,3.8021,3.8117,3.8206,3.8393,3.8509,3.8577,3.8687,3.8838,3.8967,3.8995,3.9047,3.9067,3.9096,3.8958,3.8942,3.8927,3.8893,3.9077,3.9077,3.9233,3.9234,3.9235]}]]